Location: Fernhill
(41.0167°S, 175.6333°E)
Time: 03:01:26
(UTC+00:00)

SeaSat 1 - Pass Details

Date: 08 November 2025
Orbit: 737 x 739 km, 108.0° (Epoch: 15 December)

Event Time Altitude Azimuth Distance (km) Brightness Sun altitude
Exits shadow 11:35:55 41° 219° (SW) 1,084 3.5 -32.0°
Drops below altitude 10° 11:39:08 10° 209° (SSW) 2,279 5.7 -32.0°
Sets 11:41:26 0° 207° (SSW) 3,209 6.7 -32.1°
